Yendi Airport

Jump to: basic info | weather | comments

Related pages: nearby airports | nearby navaids | notams | map

Basic information (top)

Codes: DGLY
Location: lon 9.425000, lat -0.004722, elev 2,408 ft / 734 m msl
Status: small_airport
Scheduled airline service: no
Links: Wikipedia Mobile

Weather (top)

Current conditions for Tamale Airport 51nm (95km) W (rec'd 2009/12/22 13:00Z):

DGLE 221300Z 14006KTS 6000M HZ 36/18 Q1012

Airport forecast for Niamtougou International Airport 68nm (126km) ENE (rec'd 2014/10/25 06:12Z):

TAF TAF DXNG 250550Z 2506/2606 28006KT 9999 SCT010 
      TEMPO 2515/2521 4000 TSRA BKN008 FEW020CB

Latest comments (top)

No comments yet for Yendi Airport

More... (top)

See also NOTAMs and nearby airports and navaids, or visit the Yendi Airport page at the main OurAirports website..